Time,TemperatureF,DewpointF,PressureIn,WindDirection,WindDirectionDegrees,WindSpeedMPH,WindSpeedGustMPH,Humidity,HourlyPrecipIn,Conditions,Clouds,dailyrainin,SoftwareType,DateUTC
2013-05-19 00:02:00,79.0,68.0,29.46,ESE,114,8.0,18.0,68,0.00,,,0.00,,2013-05-19 05:02:00,
2013-05-19 00:12:00,79.0,68.0,29.46,ESE,114,8.0,18.0,68,0.00,,,0.00,,2013-05-19 05:12:00,
2013-05-19 00:22:00,79.0,68.0,29.47,ESE,111,7.0,17.0,68,0.00,,,0.00,,2013-05-19 05:22:00,
2013-05-19 00:32:00,78.0,67.0,29.47,SSE,155,8.0,14.0,69,0.00,,,0.00,,2013-05-19 05:32:00,
2013-05-19 00:42:00,78.0,67.0,29.46,ESE,103,8.0,15.0,70,0.00,,,0.00,,2013-05-19 05:42:00,
2013-05-19 00:52:00,78.0,67.0,29.46,ESE,103,8.0,15.0,70,0.00,,,0.00,,2013-05-19 05:52:00,
2013-05-19 01:02:00,78.0,67.0,29.45,SE,140,9.0,19.0,69,0.00,,,0.00,,2013-05-19 06:02:00,
2013-05-19 01:12:00,78.0,67.0,29.45,SE,140,9.0,19.0,69,0.00,,,0.00,,2013-05-19 06:12:00,
2013-05-19 01:21:00,77.0,66.0,29.45,SSW,194,8.0,20.0,70,0.00,,,0.00,,2013-05-19 06:21:00,
2013-05-19 01:32:00,77.0,67.0,29.45,SSW,196,6.0,15.0,71,0.00,,,0.00,,2013-05-19 06:32:00,
2013-05-19 01:42:00,77.0,67.0,29.45,SSW,196,6.0,15.0,71,0.00,,,0.00,,2013-05-19 06:42:00,
2013-05-19 01:52:00,77.0,67.0,29.46,SE,146,7.0,23.0,72,0.00,,,0.00,,2013-05-19 06:52:00,
2013-05-19 02:01:00,76.0,67.0,29.46,SSE,153,5.0,16.0,73,0.00,,,0.00,,2013-05-19 07:01:00,
2013-05-19 02:11:00,76.0,67.0,29.46,SSE,153,5.0,16.0,73,0.00,,,0.00,,2013-05-19 07:11:00,
2013-05-19 02:21:00,76.0,67.0,29.46,ESE,112,7.0,15.0,73,0.00,,,0.00,,2013-05-19 07:21:00,
2013-05-19 02:32:00,75.0,66.0,29.46,South,171,5.0,15.0,74,0.00,,,0.00,,2013-05-19 07:32:00,
2013-05-19 02:42:00,75.0,66.0,29.46,South,171,5.0,15.0,74,0.00,,,0.00,,2013-05-19 07:42:00,
2013-05-19 02:52:00,75.0,66.0,29.46,SSE,167,3.0,9.0,74,0.00,,,0.00,,2013-05-19 07:52:00,
2013-05-19 03:01:00,74.0,66.0,29.45,SE,145,4.0,13.0,75,0.00,,,0.00,,2013-05-19 08:01:00,
2013-05-19 03:12:00,74.0,66.0,29.45,SE,145,4.0,13.0,75,0.00,,,0.00,,2013-05-19 08:12:00,
2013-05-19 03:22:00,74.0,66.0,29.45,SE,144,6.0,13.0,75,0.00,,,0.00,,2013-05-19 08:22:00,
2013-05-19 03:32:00,73.0,65.0,29.45,SE,146,5.0,15.0,77,0.00,,,0.00,,2013-05-19 08:32:00,
2013-05-19 03:42:00,73.0,65.0,29.45,SE,146,5.0,15.0,77,0.00,,,0.00,,2013-05-19 08:42:00,
2013-05-19 03:52:00,73.0,65.0,29.45,ESE,102,5.0,12.0,76,0.00,,,0.00,,2013-05-19 08:52:00,
2013-05-19 04:02:00,73.0,65.0,29.44,SSE,159,5.0,14.0,77,0.00,,,0.00,,2013-05-19 09:02:00,
2013-05-19 04:11:00,73.0,65.0,29.44,SSE,159,5.0,14.0,77,0.00,,,0.00,,2013-05-19 09:11:00,
2013-05-19 04:21:00,72.0,65.0,29.44,SE,138,5.0,14.0,78,0.00,,,0.00,,2013-05-19 09:21:00,
2013-05-19 04:32:00,72.0,65.0,29.43,SSE,157,5.0,17.0,79,0.00,,,0.00,,2013-05-19 09:32:00,
2013-05-19 04:43:00,72.0,65.0,29.43,SSE,157,5.0,17.0,79,0.00,,,0.00,,2013-05-19 09:43:00,
2013-05-19 04:53:00,71.0,65.0,29.43,ESE,113,5.0,14.0,81,0.00,,,0.00,,2013-05-19 09:53:00,
2013-05-19 05:02:00,71.0,65.0,29.43,South,174,4.0,13.0,82,0.00,,,0.00,,2013-05-19 10:02:00,
2013-05-19 05:12:00,71.0,65.0,29.43,South,174,4.0,13.0,82,0.00,,,0.00,,2013-05-19 10:12:00,
2013-05-19 05:23:00,71.0,66.0,29.43,SSE,167,6.0,13.0,83,0.00,,,0.00,,2013-05-19 10:23:00,
2013-05-19 05:33:00,70.0,65.0,29.42,SSE,167,7.0,17.0,85,0.00,,,0.00,,2013-05-19 10:33:00,
2013-05-19 05:42:00,70.0,65.0,29.42,SSE,167,7.0,17.0,85,0.00,,,0.00,,2013-05-19 10:42:00,
2013-05-19 05:53:00,70.0,66.0,29.43,SE,132,6.0,13.0,86,0.00,,,0.00,,2013-05-19 10:53:00,
2013-05-19 06:02:00,70.0,66.0,29.44,SE,126,5.0,13.0,87,0.00,,,0.00,,2013-05-19 11:02:00,
2013-05-19 06:12:00,70.0,66.0,29.44,SE,126,5.0,13.0,87,0.00,,,0.00,,2013-05-19 11:12:00,
2013-05-19 06:21:00,70.0,66.0,29.44,ESE,115,4.0,13.0,88,0.00,,,0.00,,2013-05-19 11:21:00,
2013-05-19 06:32:00,70.0,66.0,29.44,SE,132,5.0,14.0,87,0.00,,,0.00,,2013-05-19 11:32:00,
2013-05-19 06:42:00,70.0,66.0,29.44,SE,132,5.0,14.0,87,0.00,,,0.00,,2013-05-19 11:42:00,
2013-05-19 06:52:00,70.0,66.0,29.45,South,178,5.0,13.0,87,0.00,,,0.00,,2013-05-19 11:52:00,
2013-05-19 07:01:00,71.0,67.0,29.45,ENE,76,6.0,12.0,87,0.00,,,0.00,,2013-05-19 12:01:00,
2013-05-19 07:11:00,71.0,67.0,29.45,ENE,76,6.0,12.0,87,0.00,,,0.00,,2013-05-19 12:11:00,
2013-05-19 07:22:00,71.0,67.0,29.46,SE,141,5.0,11.0,86,0.00,,,0.00,,2013-05-19 12:22:00,
2013-05-19 07:32:00,71.0,67.0,29.47,SE,130,6.0,13.0,86,0.00,,,0.00,,2013-05-19 12:32:00,
2013-05-19 07:42:00,71.0,67.0,29.47,SE,130,6.0,13.0,86,0.00,,,0.00,,2013-05-19 12:42:00,
2013-05-19 07:52:00,72.0,67.0,29.47,SE,146,5.0,10.0,85,0.00,,,0.00,,2013-05-19 12:52:00,
2013-05-19 08:01:00,72.0,67.0,29.47,SSW,198,7.0,14.0,84,0.00,,,0.00,,2013-05-19 13:01:00,
2013-05-19 08:11:00,72.0,67.0,29.47,SSW,198,7.0,14.0,84,0.00,,,0.00,,2013-05-19 13:11:00,
2013-05-19 08:21:00,72.0,67.0,29.48,South,182,7.0,14.0,83,0.00,,,0.00,,2013-05-19 13:21:00,
2013-05-19 08:32:00,73.0,68.0,29.48,SSE,160,7.0,18.0,83,0.00,,,0.00,,2013-05-19 13:32:00,
2013-05-19 08:42:00,73.0,68.0,29.48,SSE,160,7.0,18.0,83,0.00,,,0.00,,2013-05-19 13:42:00,
2013-05-19 08:52:00,73.0,67.0,29.48,SSE,153,5.0,17.0,82,0.00,,,0.00,,2013-05-19 13:52:00,
2013-05-19 09:02:00,73.0,67.0,29.48,SSE,161,7.0,15.0,82,0.00,,,0.00,,2013-05-19 14:02:00,
2013-05-19 09:11:00,73.0,67.0,29.48,SSE,161,7.0,15.0,82,0.00,,,0.00,,2013-05-19 14:11:00,
2013-05-19 09:21:00,74.0,68.0,29.48,SSE,163,7.0,17.0,81,0.00,,,0.00,,2013-05-19 14:21:00,
2013-05-19 09:32:00,75.0,68.0,29.48,East,92,4.0,16.0,80,0.00,,,0.00,,2013-05-19 14:32:00,
2013-05-19 09:42:00,75.0,68.0,29.48,East,92,4.0,16.0,80,0.00,,,0.00,,2013-05-19 14:42:00,
2013-05-19 09:52:00,75.0,68.0,29.48,East,92,4.0,16.0,80,0.00,,,0.00,,2013-05-19 14:52:00,
2013-05-19 10:01:00,76.0,67.0,29.48,SSE,161,10.0,22.0,75,0.00,,,0.00,,2013-05-19 15:01:00,
2013-05-19 10:11:00,76.0,67.0,29.48,SSE,161,10.0,22.0,75,0.00,,,0.00,,2013-05-19 15:11:00,
2013-05-19 10:22:00,77.0,68.0,29.48,SW,217,8.0,20.0,74,0.00,,,0.00,,2013-05-19 15:22:00,
2013-05-19 10:33:00,78.0,68.0,29.47,SSE,153,10.0,26.0,72,0.00,,,0.00,,2013-05-19 15:33:00,
2013-05-19 10:43:00,78.0,68.0,29.47,SSE,153,10.0,26.0,72,0.00,,,0.00,,2013-05-19 15:43:00,
2013-05-19 10:53:00,78.0,68.0,29.46,SSE,158,6.0,17.0,72,0.00,,,0.00,,2013-05-19 15:53:00,
2013-05-19 11:03:00,80.0,69.0,29.45,SSE,166,10.0,20.0,69,0.00,,,0.00,,2013-05-19 16:03:00,
2013-05-19 11:12:00,80.0,69.0,29.45,SSE,166,10.0,20.0,69,0.00,,,0.00,,2013-05-19 16:12:00,
2013-05-19 11:23:00,80.0,69.0,29.45,SE,126,7.0,24.0,69,0.00,,,0.00,,2013-05-19 16:23:00,
2013-05-19 11:32:00,81.0,69.0,29.45,ESE,119,6.0,19.0,67,0.00,,,0.00,,2013-05-19 16:32:00,
2013-05-19 11:42:00,81.0,69.0,29.45,ESE,119,6.0,19.0,67,0.00,,,0.00,,2013-05-19 16:42:00,
2013-05-19 11:52:00,82.0,69.0,29.44,SSE,166,9.0,24.0,66,0.00,,,0.00,,2013-05-19 16:52:00,
2013-05-19 12:02:00,83.0,70.0,29.43,SE,138,9.0,24.0,64,0.00,,,0.00,,2013-05-19 17:02:00,
2013-05-19 12:12:00,83.0,70.0,29.43,SE,138,9.0,24.0,64,0.00,,,0.00,,2013-05-19 17:12:00,
2013-05-19 12:22:00,84.0,70.0,29.42,ENE,74,10.0,22.0,62,0.00,,,0.00,,2013-05-19 17:22:00,
2013-05-19 12:32:00,84.0,70.0,29.43,ESE,120,7.0,24.0,64,0.00,,,0.00,,2013-05-19 17:32:00,
2013-05-19 12:42:00,84.0,70.0,29.43,ESE,120,7.0,24.0,64,0.00,,,0.00,,2013-05-19 17:42:00,
2013-05-19 12:52:00,85.0,70.0,29.42,ESE,115,10.0,21.0,61,0.00,,,0.00,,2013-05-19 17:52:00,
2013-05-19 13:02:00,85.0,70.0,29.42,ESE,111,11.0,19.0,61,0.00,,,0.00,,2013-05-19 18:02:00,
2013-05-19 13:12:00,85.0,70.0,29.42,ESE,111,11.0,19.0,61,0.00,,,0.00,,2013-05-19 18:12:00,
2013-05-19 13:22:00,85.0,70.0,29.41,SSE,160,9.0,19.0,61,0.00,,,0.00,,2013-05-19 18:22:00,
2013-05-19 13:32:00,86.0,70.0,29.41,ESE,121,8.0,21.0,59,0.00,,,0.00,,2013-05-19 18:32:00,
2013-05-19 13:42:00,86.0,70.0,29.41,ESE,121,8.0,21.0,59,0.00,,,0.00,,2013-05-19 18:42:00,
2013-05-19 13:53:00,86.0,70.0,29.41,South,190,7.0,23.0,60,0.00,,,0.00,,2013-05-19 18:53:00,
2013-05-19 14:01:00,86.0,69.0,29.40,South,182,12.0,22.0,58,0.00,,,0.00,,2013-05-19 19:01:00,
2013-05-19 14:11:00,86.0,69.0,29.40,South,182,12.0,22.0,58,0.00,,,0.00,,2013-05-19 19:11:00,
2013-05-19 14:22:00,87.0,71.0,29.40,SSE,155,12.0,22.0,59,0.00,,,0.00,,2013-05-19 19:22:00,
2013-05-19 14:32:00,86.0,70.0,29.39,South,169,11.0,23.0,59,0.00,,,0.00,,2013-05-19 19:32:00,
2013-05-19 14:42:00,86.0,70.0,29.39,South,169,11.0,23.0,59,0.00,,,0.00,,2013-05-19 19:42:00,
2013-05-19 14:52:00,87.0,71.0,29.39,SE,128,7.0,24.0,59,0.00,,,0.00,,2013-05-19 19:52:00,
2013-05-19 15:02:00,88.0,70.0,29.38,SSE,161,8.0,21.0,56,0.00,,,0.00,,2013-05-19 20:02:00,
2013-05-19 15:11:00,88.0,70.0,29.38,SSE,161,8.0,21.0,56,0.00,,,0.00,,2013-05-19 20:11:00,
2013-05-19 15:21:00,90.0,71.0,29.38,South,185,8.0,22.0,54,0.00,,,0.00,,2013-05-19 20:21:00,
2013-05-19 15:32:00,89.0,71.0,29.38,ESE,113,8.0,19.0,56,0.00,,,0.00,,2013-05-19 20:32:00,
2013-05-19 15:42:00,89.0,71.0,29.38,ESE,113,8.0,19.0,56,0.00,,,0.00,,2013-05-19 20:42:00,
2013-05-19 15:52:00,89.0,71.0,29.37,East,98,9.0,24.0,56,0.00,,,0.00,,2013-05-19 20:52:00,
2013-05-19 16:02:00,90.0,72.0,29.37,SSE,162,8.0,22.0,55,0.00,,,0.00,,2013-05-19 21:02:00,
2013-05-19 16:11:00,90.0,72.0,29.37,SSE,162,8.0,22.0,55,0.00,,,0.00,,2013-05-19 21:11:00,
2013-05-19 16:22:00,89.0,71.0,29.37,WSW,253,5.0,18.0,55,0.00,,,0.00,,2013-05-19 21:22:00,
2013-05-19 16:32:00,89.0,71.0,29.36,South,170,9.0,18.0,56,0.00,,,0.00,,2013-05-19 21:32:00,
2013-05-19 16:43:00,89.0,71.0,29.36,South,170,9.0,18.0,56,0.00,,,0.00,,2013-05-19 21:43:00,
2013-05-19 16:53:00,87.0,69.0,29.36,SSE,161,9.0,20.0,56,0.00,,,0.00,,2013-05-19 21:53:00,
2013-05-19 17:03:00,88.0,71.0,29.35,SSE,160,8.0,20.0,57,0.00,,,0.00,,2013-05-19 22:03:00,
2013-05-19 17:12:00,88.0,71.0,29.35,SSE,160,8.0,20.0,57,0.00,,,0.00,,2013-05-19 22:12:00,
2013-05-19 17:23:00,88.0,71.0,29.35,SE,139,6.0,16.0,57,0.00,,,0.00,,2013-05-19 22:23:00,
2013-05-19 17:33:00,88.0,70.0,29.34,ESE,114,7.0,18.0,56,0.00,,,0.00,,2013-05-19 22:33:00,
2013-05-19 17:42:00,88.0,70.0,29.34,ESE,114,7.0,18.0,56,0.00,,,0.00,,2013-05-19 22:42:00,
2013-05-19 17:53:00,88.0,70.0,29.34,SE,133,11.0,24.0,56,0.00,,,0.00,,2013-05-19 22:53:00,
2013-05-19 18:02:00,88.0,70.0,29.34,ESE,123,8.0,19.0,56,0.00,,,0.00,,2013-05-19 23:02:00,
2013-05-19 18:11:00,88.0,70.0,29.34,ESE,123,8.0,19.0,56,0.00,,,0.00,,2013-05-19 23:11:00,
2013-05-19 18:22:00,88.0,70.0,29.34,ESE,106,10.0,23.0,56,0.00,,,0.00,,2013-05-19 23:22:00,
2013-05-19 18:32:00,88.0,71.0,29.33,South,175,10.0,21.0,57,0.00,,,0.00,,2013-05-19 23:32:00,
2013-05-19 18:42:00,88.0,71.0,29.33,South,175,10.0,21.0,57,0.00,,,0.00,,2013-05-19 23:42:00,
2013-05-19 18:52:00,88.0,71.0,29.32,SE,140,6.0,22.0,58,0.00,,,0.00,,2013-05-19 23:52:00,
2013-05-19 19:02:00,87.0,70.0,29.32,SE,131,9.0,20.0,57,0.00,,,0.00,,2013-05-20 00:02:00,
2013-05-19 19:11:00,87.0,70.0,29.32,SE,131,9.0,20.0,57,0.00,,,0.00,,2013-05-20 00:11:00,
2013-05-19 19:21:00,87.0,70.0,29.32,SSE,152,5.0,19.0,57,0.00,,,0.00,,2013-05-20 00:21:00,
2013-05-19 19:32:00,87.0,70.0,29.32,East,100,7.0,20.0,57,0.00,,,0.00,,2013-05-20 00:32:00,
2013-05-19 19:42:00,87.0,70.0,29.32,East,100,7.0,20.0,57,0.00,,,0.00,,2013-05-20 00:42:00,
2013-05-19 19:52:00,86.0,69.0,29.32,ESE,105,10.0,18.0,58,0.00,,,0.00,,2013-05-20 00:52:00,
2013-05-19 20:01:00,86.0,70.0,29.32,SE,144,9.0,21.0,59,0.00,,,0.00,,2013-05-20 01:01:00,
2013-05-19 20:11:00,86.0,70.0,29.32,SE,144,9.0,21.0,59,0.00,,,0.00,,2013-05-20 01:11:00,
2013-05-19 20:21:00,85.0,70.0,29.33,ESE,117,7.0,17.0,60,0.00,,,0.00,,2013-05-20 01:21:00,
2013-05-19 20:31:00,85.0,70.0,29.34,East,99,7.0,19.0,61,0.00,,,0.00,,2013-05-20 01:31:00,
2013-05-19 20:42:00,85.0,70.0,29.34,East,99,7.0,19.0,61,0.00,,,0.00,,2013-05-20 01:42:00,
2013-05-19 20:52:00,84.0,70.0,29.34,South,172,8.0,14.0,62,0.00,,,0.00,,2013-05-20 01:52:00,
2013-05-19 21:02:00,84.0,70.0,29.35,SE,130,6.0,14.0,62,0.00,,,0.00,,2013-05-20 02:02:00,
2013-05-19 21:11:00,84.0,70.0,29.35,SE,130,6.0,14.0,62,0.00,,,0.00,,2013-05-20 02:11:00,
2013-05-19 21:21:00,83.0,69.0,29.36,SSE,149,7.0,16.0,63,0.00,,,0.00,,2013-05-20 02:21:00,
2013-05-19 21:31:00,83.0,69.0,29.36,SSE,150,10.0,20.0,63,0.00,,,0.00,,2013-05-20 02:31:00,
2013-05-19 21:42:00,83.0,69.0,29.36,SSE,150,10.0,20.0,63,0.00,,,0.00,,2013-05-20 02:42:00,
2013-05-19 21:52:00,83.0,70.0,29.37,SSE,161,8.0,16.0,64,0.00,,,0.00,,2013-05-20 02:52:00,
2013-05-19 22:01:00,82.0,69.0,29.38,ESE,105,7.0,19.0,64,0.00,,,0.00,,2013-05-20 03:01:00,
2013-05-19 22:11:00,82.0,69.0,29.38,ESE,105,7.0,19.0,64,0.00,,,0.00,,2013-05-20 03:11:00,
2013-05-19 22:21:00,82.0,68.0,29.38,East,86,10.0,20.0,63,0.00,,,0.00,,2013-05-20 03:21:00,
2013-05-19 22:33:00,82.0,69.0,29.38,SE,139,7.0,18.0,64,0.00,,,0.00,,2013-05-20 03:33:00,
2013-05-19 22:42:00,82.0,69.0,29.38,SE,139,7.0,18.0,64,0.00,,,0.00,,2013-05-20 03:42:00,
2013-05-19 22:52:00,81.0,68.0,29.39,SE,140,8.0,21.0,65,0.00,,,0.00,,2013-05-20 03:52:00,
2013-05-19 23:02:00,81.0,69.0,29.39,SE,133,8.0,18.0,66,0.00,,,0.00,,2013-05-20 04:02:00,
2013-05-19 23:13:00,81.0,69.0,29.39,SE,133,8.0,18.0,66,0.00,,,0.00,,2013-05-20 04:13:00,
2013-05-19 23:23:00,80.0,68.0,29.40,South,178,9.0,19.0,67,0.00,,,0.00,,2013-05-20 04:23:00,
2013-05-19 23:33:00,80.0,68.0,29.40,East,101,7.0,17.0,68,0.00,,,0.00,,2013-05-20 04:33:00,
2013-05-19 23:42:00,80.0,68.0,29.40,East,101,7.0,17.0,68,0.00,,,0.00,,2013-05-20 04:42:00,
2013-05-19 23:53:00,79.0,68.0,29.40,SE,138,8.0,22.0,68,0.00,,,0.00,,2013-05-20 04:53:00,